Location: Newark
(36.0797°N, 3.9744°E)
Time: 21:35:44
(UTC+00:00)

Vanguard 2 Rocket - Pass Details

Date: 17 December 2019
Orbit: 554 x 3326 km, 32.9° (Epoch: 17 January)

Event Time Altitude Azimuth Distance (km) Brightness Sun altitude
Rises 15:16:46 0° 240° (WSW) 7,296 13.4 11.6°
Reaches altitude 10° 15:21:47 10° 238° (WSW) 6,273 13.8 10.8°
Maximum altitude 15:41:16 65° 162° (SSE) 2,931 9.7 7.7°
Drops below altitude 10° 15:54:09 10° 85° (E) 4,362 9.9 5.6°
Sets 15:56:58 0° 82° (E) 5,051 10.1 5.1°
